Weather History for KELZ - November, 2014

Change the Weather History Date:

Saturday, November 8, 2014

  Actual Average (KBFD) Record (KBFD)
Temperature  
Mean Temperature 36 °F 40 °F  
Max Temperature 44 °F 49 °F 67 °F (2009)
Min Temperature 28 °F 31 °F 9 °F (1971)
Degree Days  
Heating Degree Days 29 21  
Month to date heating degree days 156  
Since 1 July heating degree days 1149  
Cooling Degree Days 0 0  
Month to date cooling degree days 0  
Year to date cooling degree days 193  
Moisture  
Dew Point 26 °F    
Average Humidity 66    
Maximum Humidity 89    
Minimum Humidity 43    
Precipitation  
Precipitation 0.01 in 0.12 in 0.77 in (1965)
Month to date precipitation 0.93  
Year to date precipitation 38.23  
Sea Level Pressure  
Sea Level Pressure 29.88 in    
Wind  
Wind Speed 8 mph (SW)    
Max Wind Speed 16 mph    
Max Gust Speed 28 mph    
Visibility 10 miles    
Events Rain    
T = Trace of Precipitation, MM = Missing Value Source: NWS Daily Summary

Daily Weather History Graph

Daily Weather History Graph

Search for Another Location

Airport or City:

Trip Planner

Search our weather history database for the weather conditions in past years. The results will help you decide how hot, cold, wet, or windy it might be!

Date:

Astronomy

Nov. 08, 2014 Rise Set
Actual Time 6:53 AM EST 4:57 PM EST
Civil Twilight 6:23 AM EST 5:26 PM EST
Nautical Twilight 5:50 AM EST 6:00 PM EST
Astronomical Twilight 5:17 AM EST 6:33 PM EST
Moon 6:36 PM EST (11/8) 8:28 AM EST (11/8)
Length of Visible Light 11h 03m
Length of Day
10h 04m
Waning Gibbous, 96% of the Moon is Illuminated
Nov 8
Waning Gibbous
Nov 14
Last Quarter
Nov 22
New
Nov 29
First Quarter
Dec 6
Full

Hourly Weather History & Observations

Time (EST) Temp. Windchill Dew Point Humidity Pressure Visibility Wind Dir Wind Speed Gust Speed Precip Events Conditions
12:56 AM 28.0 °F 22.8 °F 23.0 °F 81% 30.00 in 10.0 mi WSW 4.6 mph - N/A   Partly Cloudy
1:56 AM 28.0 °F 24.2 °F 24.1 °F 85% 30.01 in 10.0 mi SSW 3.5 mph - N/A   Overcast
2:56 AM 28.9 °F 25.2 °F 24.1 °F 82% 30.00 in 10.0 mi SW 3.5 mph - N/A   Overcast
3:56 AM 28.9 °F 23.9 °F 25.0 °F 85% 29.99 in 10.0 mi SW 4.6 mph - N/A   Overcast
4:56 AM 28.9 °F 23.9 °F 26.1 °F 89% 29.99 in 10.0 mi WSW 4.6 mph - N/A   Overcast
5:56 AM 30.0 °F 23.2 °F 26.1 °F 85% 29.98 in 10.0 mi SW 6.9 mph - N/A   Overcast
6:56 AM 30.0 °F 25.2 °F 26.1 °F 85% 29.96 in 10.0 mi SW 4.6 mph - N/A   Partly Cloudy
7:56 AM 30.9 °F 24.3 °F 26.1 °F 82% 29.94 in 10.0 mi South 6.9 mph - N/A   Mostly Cloudy
8:56 AM 32.0 °F 25.6 °F 24.1 °F 73% 29.93 in 10.0 mi Variable 6.9 mph - N/A   Mostly Cloudy
9:56 AM 36.0 °F 28.0 °F 26.1 °F 67% 29.91 in 10.0 mi SW 11.5 mph 18.4 mph N/A   Scattered Clouds
10:56 AM 36.0 °F 30.3 °F 25.0 °F 64% 29.92 in 10.0 mi South 6.9 mph - N/A   Overcast
11:56 AM 36.0 °F 27.5 °F 24.1 °F 62% 29.88 in 10.0 mi SSW 12.7 mph 20.7 mph N/A   Overcast
12:56 PM 37.9 °F 30.0 °F 25.0 °F 60% 29.86 in 10.0 mi SSW 12.7 mph 19.6 mph N/A   Overcast
1:56 PM 41.0 °F 33.9 °F 25.0 °F 53% 29.81 in 10.0 mi South 12.7 mph 24.2 mph N/A   Mostly Cloudy
2:56 PM 42.1 °F 34.9 °F 24.1 °F 49% 29.79 in 10.0 mi South 13.8 mph 19.6 mph N/A   Overcast
3:56 PM 42.1 °F 36.6 °F 24.1 °F 49% 29.78 in 10.0 mi South 9.2 mph 19.6 mph N/A   Overcast
4:56 PM 42.1 °F 34.2 °F 21.9 °F 45% 29.77 in 10.0 mi SSW 16.1 mph 21.9 mph N/A   Overcast
5:56 PM 43.0 °F 36.4 °F 21.9 °F 43% 29.77 in 10.0 mi SSW 12.7 mph 20.7 mph N/A   Overcast
6:56 PM 44.1 °F 37.7 °F 23.0 °F 43% 29.79 in 10.0 mi SW 12.7 mph 25.3 mph N/A   Overcast
7:56 PM 44.1 °F 37.4 °F 25.0 °F 47% 29.80 in 10.0 mi SW 13.8 mph 27.6 mph N/A   Overcast
8:56 PM 43.0 °F 37.2 °F 28.9 °F 58% 29.81 in 10.0 mi WSW 10.4 mph 21.9 mph N/A   Overcast
9:30 PM 43.0 °F 37.7 °F 30.0 °F 60% 29.76 in 10.0 mi WSW 9.2 mph 19.6 mph N/A   Overcast
9:56 PM 43.0 °F 36.4 °F 30.9 °F 62% 29.81 in 10.0 mi WSW 12.7 mph 20.7 mph N/A   Overcast
10:56 PM 42.1 °F 36.6 °F 32.0 °F 67% 29.82 in 10.0 mi West 9.2 mph 20.7 mph N/A   Overcast
11:56 PM 39.0 °F 32.8 °F 34.0 °F 82% 29.84 in 10.0 mi West 9.2 mph 19.6 mph 0.01 in Rain Light Rain